AFL1430 UNNT-UNBB

Flight info

Callsign AFL1430
Flight time 0h 28m
Altitude 23000
Route ALIRO
Aircraft A320/M-SDE3FGHIRWY/LB1

Departure

Time 2026-04-18 03:13
Airport Novosibirsk Tolmachevo Airport (UNNT)

Arrival

Time 2026-04-18 03:41
Airport Barnaul Gherman Titov International Airport (UNBB)
Time Latitude Longitude Altitude Speed Heading
2026-04-18 03:06 55.01068 82.66329 373 ft 0 kts 171°
2026-04-18 03:10 55.01055 82.66333 373 ft 5 kts 171°
2026-04-18 03:10 55.01026 82.66390 373 ft 10 kts 89°
2026-04-18 03:11 55.01049 82.66503 373 ft 9 kts 68°
2026-04-18 03:11 55.01081 82.66630 373 ft 13 kts 57°
2026-04-18 03:11 55.01144 82.66650 373 ft 12 kts 353°
2026-04-18 03:11 55.01244 82.66627 373 ft 17 kts 351°
2026-04-18 03:12 55.01367 82.66579 374 ft 14 kts 317°
2026-04-18 03:12 55.01364 82.66383 374 ft 22 kts 261°
2026-04-18 03:12 55.01299 82.65683 372 ft 96 kts 262°
2026-04-18 03:12 55.01164 82.64179 487 ft 144 kts 258°
2026-04-18 03:13 55.00997 82.62419 1239 ft 150 kts 257°
2026-04-18 03:13 55.00829 82.60568 2071 ft 160 kts 257°
2026-04-18 03:13 55.00642 82.58525 2623 ft 181 kts 257°
2026-04-18 03:13 55.00431 82.56216 3244 ft 201 kts 258°
2026-04-18 03:14 55.00244 82.53816 4382 ft 205 kts 267°
2026-04-18 03:14 55.00534 82.51242 5079 ft 227 kts 289°
2026-04-18 03:14 55.01168 82.48678 6115 ft 232 kts 295°
2026-04-18 03:14 55.01887 82.46143 7214 ft 234 kts 296°
2026-04-18 03:15 55.02615 82.43595 8281 ft 235 kts 296°
2026-04-18 03:15 55.03333 82.41021 9349 ft 237 kts 296°
2026-04-18 03:15 55.03975 82.38372 10394 ft 240 kts 288°
2026-04-18 03:15 55.04197 82.35435 11166 ft 255 kts 272°
2026-04-18 03:16 55.03942 82.32226 11635 ft 280 kts 265°
2026-04-18 03:16 55.03591 82.28740 12012 ft 303 kts 265°
2026-04-18 03:16 55.03477 82.27640 12182 ft 308 kts 265°
2026-04-18 03:16 55.03170 82.24714 12769 ft 315 kts 265°
2026-04-18 03:17 55.02767 82.20926 13601 ft 321 kts 265°
2026-04-18 03:17 55.02355 82.17075 14409 ft 326 kts 266°
2026-04-18 03:17 55.01940 82.13177 15199 ft 328 kts 266°
2026-04-18 03:17 55.01529 82.09265 16052 ft 329 kts 266°
2026-04-18 03:18 55.00766 82.05438 16899 ft 344 kts 249°
2026-04-18 03:18 54.99213 82.02129 17704 ft 366 kts 229°
2026-04-18 03:18 54.96898 81.99881 18497 ft 391 kts 206°
2026-04-18 03:18 54.94133 81.99220 19163 ft 410 kts 188°
2026-04-18 03:19 54.91259 81.99143 19776 ft 416 kts 187°
2026-04-18 03:19 54.88347 81.99148 20366 ft 421 kts 187°
2026-04-18 03:19 54.85398 81.99191 20949 ft 426 kts 186°
2026-04-18 03:19 54.82416 81.99233 21525 ft 431 kts 187°
2026-04-18 03:20 54.79403 81.99258 22080 ft 435 kts 187°
2026-04-18 03:20 54.76358 81.99260 22634 ft 440 kts 187°
2026-04-18 03:20 54.73281 81.99245 23172 ft 444 kts 187°
2026-04-18 03:20 54.70175 81.99221 23395 ft 447 kts 187°
2026-04-18 03:21 54.67066 81.99193 23431 ft 454 kts 187°
2026-04-18 03:21 54.63849 81.99149 23430 ft 471 kts 187°
2026-04-18 03:21 54.60501 81.99344 23430 ft 492 kts 179°
2026-04-18 03:21 54.57089 82.00557 23433 ft 512 kts 167°
2026-04-18 03:22 54.53660 82.02519 23444 ft 525 kts 165°
2026-04-18 03:22 54.50162 82.04539 23440 ft 535 kts 165°
2026-04-18 03:22 54.46618 82.06565 23446 ft 538 kts 165°
2026-04-18 03:22 54.43059 82.08578 23442 ft 539 kts 165°
2026-04-18 03:23 54.39496 82.10582 23448 ft 539 kts 165°
2026-04-18 03:23 54.35885 82.12610 23448 ft 539 kts 165°
2026-04-18 03:23 54.32322 82.14611 23444 ft 539 kts 165°
2026-04-18 03:23 54.29960 82.15938 23446 ft 539 kts 165°
2026-04-18 03:24 54.26407 82.17937 23445 ft 539 kts 165°
2026-04-18 03:24 54.22838 82.19938 23445 ft 538 kts 165°
2026-04-18 03:24 54.19284 82.21920 23442 ft 538 kts 165°
2026-04-18 03:24 54.15765 82.23881 23439 ft 519 kts 165°
2026-04-18 03:25 54.12426 82.25751 23451 ft 494 kts 165°
2026-04-18 03:25 54.09247 82.27636 23450 ft 474 kts 160°
2026-04-18 03:25 54.06371 82.30220 23449 ft 464 kts 147°
2026-04-18 03:25 54.03835 82.33615 23146 ft 463 kts 135°
2026-04-18 03:26 54.01776 82.37718 22458 ft 446 kts 120°
2026-04-18 03:26 54.00299 82.42186 22015 ft 425 kts 109°
2026-04-18 03:26 53.99097 82.46732 21537 ft 421 kts 109°
2026-04-18 03:26 53.97876 82.51252 21050 ft 419 kts 110°
2026-04-18 03:27 53.96638 82.55774 20549 ft 416 kts 110°
2026-04-18 03:27 53.95413 82.60219 20069 ft 415 kts 111°
2026-04-18 03:27 53.94207 82.64595 19576 ft 413 kts 111°
2026-04-18 03:27 53.92980 82.69057 19081 ft 412 kts 111°
2026-04-18 03:28 53.91770 82.73457 18563 ft 411 kts 111°
2026-04-18 03:28 53.90572 82.77802 18048 ft 399 kts 111°
2026-04-18 03:28 53.89412 82.81999 17589 ft 391 kts 111°
2026-04-18 03:28 53.88266 82.86159 17127 ft 388 kts 111°
2026-04-18 03:29 53.87125 82.90297 16664 ft 386 kts 111°
2026-04-18 03:29 53.85993 82.94399 16203 ft 384 kts 111°
2026-04-18 03:29 53.84858 82.98492 15745 ft 382 kts 111°
2026-04-18 03:29 53.83733 83.02544 15288 ft 380 kts 111°
2026-04-18 03:30 53.82618 83.06544 14815 ft 368 kts 111°
2026-04-18 03:30 53.81533 83.10429 14374 ft 366 kts 111°
2026-04-18 03:30 53.80447 83.14315 13890 ft 365 kts 111°
2026-04-18 03:30 53.79366 83.18178 13425 ft 362 kts 112°
2026-04-18 03:31 53.78293 83.22012 12961 ft 359 kts 112°
2026-04-18 03:31 53.77022 83.25645 12498 ft 359 kts 125°
2026-04-18 03:31 53.75458 83.28925 12025 ft 357 kts 128°
2026-04-18 03:31 53.73888 83.32160 11565 ft 355 kts 129°
2026-04-18 03:32 53.72336 83.35361 11083 ft 346 kts 129°
2026-04-18 03:32 53.70823 83.38477 10701 ft 329 kts 129°
2026-04-18 03:32 53.69423 83.41355 10332 ft 315 kts 130°
2026-04-18 03:32 53.68039 83.44202 10103 ft 308 kts 130°
2026-04-18 03:33 53.66677 83.47001 9963 ft 307 kts 130°
2026-04-18 03:33 53.65322 83.49784 9533 ft 306 kts 130°
2026-04-18 03:33 53.63985 83.52532 8977 ft 301 kts 130°
2026-04-18 03:33 53.62668 83.55236 8429 ft 296 kts 130°
2026-04-18 03:34 53.61369 83.57894 7892 ft 292 kts 130°
2026-04-18 03:34 53.60087 83.60514 7354 ft 287 kts 130°
2026-04-18 03:34 53.58824 83.63092 6834 ft 283 kts 131°
2026-04-18 03:34 53.57577 83.65632 6288 ft 279 kts 131°
2026-04-18 03:35 53.56351 83.68128 5773 ft 274 kts 131°
2026-04-18 03:35 53.55146 83.70581 5278 ft 270 kts 131°
2026-04-18 03:35 53.53962 83.72987 4738 ft 262 kts 131°
2026-04-18 03:35 53.52772 83.75120 4558 ft 238 kts 143°
2026-04-18 03:36 53.51449 83.76531 4443 ft 215 kts 158°
2026-04-18 03:36 53.50108 83.77469 4349 ft 207 kts 160°
2026-04-18 03:36 53.48783 83.78387 4252 ft 205 kts 161°
2026-04-18 03:36 53.47447 83.79310 4164 ft 206 kts 160°
2026-04-18 03:37 53.46146 83.80211 4068 ft 203 kts 160°
2026-04-18 03:37 53.44831 83.81076 3980 ft 202 kts 168°
2026-04-18 03:37 53.43493 83.80886 3889 ft 190 kts 208°
2026-04-18 03:37 53.42604 83.79365 3736 ft 184 kts 245°
2026-04-18 03:38 53.42113 83.77380 3550 ft 188 kts 247°
2026-04-18 03:38 53.41609 83.75314 3284 ft 191 kts 246°
2026-04-18 03:38 53.41110 83.73282 3024 ft 185 kts 246°
2026-04-18 03:38 53.40620 83.71293 2793 ft 184 kts 246°
2026-04-18 03:39 53.40132 83.69322 2567 ft 183 kts 245°
2026-04-18 03:39 53.39654 83.67389 2327 ft 175 kts 245°
2026-04-18 03:39 53.39202 83.65563 2092 ft 165 kts 245°
2026-04-18 03:39 53.38784 83.63870 1901 ft 147 kts 245°
2026-04-18 03:40 53.38411 83.62366 1675 ft 134 kts 245°
2026-04-18 03:40 53.38060 83.60954 1480 ft 130 kts 245°
2026-04-18 03:40 53.37715 83.59565 1310 ft 129 kts 246°
2026-04-18 03:40 53.37371 83.58179 1142 ft 129 kts 246°
2026-04-18 03:41 53.37032 83.56786 956 ft 129 kts 246°
2026-04-18 03:41 53.36679 83.55420 840 ft 121 kts 246°
2026-04-18 03:41 53.36456 83.54510 833 ft 42 kts 247°
2026-04-18 03:41 53.36364 83.54140 834 ft 34 kts 247°
2026-04-18 03:42 53.36298 83.53910 834 ft 17 kts 221°
2026-04-18 03:42 53.36184 83.53936 838 ft 15 kts 153°
2026-04-18 03:42 53.36172 83.54104 831 ft 19 kts 65°
2026-04-18 03:42 53.36228 83.54329 827 ft 24 kts 68°
2026-04-18 03:43 53.36302 83.54627 830 ft 29 kts 67°
2026-04-18 03:43 53.36385 83.54960 836 ft 32 kts 67°
2026-04-18 03:43 53.36456 83.55243 840 ft 21 kts 67°
2026-04-18 03:43 53.36462 83.55374 833 ft 11 kts 139°
2026-04-18 03:44 53.36411 83.55304 838 ft 6 kts 245°
2026-04-18 03:44 53.36411 83.55303 838 ft 0 kts 245°